Location: ????????
(56.0167°N, 38.0333°E)
Time: 03:28:42
(UTC+00:00)

Aureole 3 Rocket - Pass Details

Date: 19 May 2025
Orbit: 397 x 1697 km, 82.5° (Epoch: 15 June)

Event Time Altitude Azimuth Distance (km) Brightness Sun altitude
Rises 22:51:20 0° 348° (NNW) 3,529 8.0 -11.8°
Reaches altitude 10° 22:54:14 10° 354° (N) 2,364 7.1 -11.7°
Maximum altitude 22:59:12 48° 69° (ENE) 818 4.0 -11.4°
Drops below altitude 10° 23:02:52 10° 145° (SE) 1,751 5.1 -11.2°
Enters shadow 23:04:04 - 149° (SSE) 2,236 5.6 -11.1°
